FENGYUN 1C DEB, 30579

Orbit data source: Space-Track

FENGYUN 1C DEB, 30579 is space debris in SSO originally from a launch on Mon, 10 May 1999 UTC launched from the Taiyaun Space Center, China (TSC). Fengyun 1C debris stems from the Chinese weather satellite Fengyun-1C, which was intentionally destroyed by a Chinese anti-satellite missile in 2007. This event dramatically increased the amount of space debris, with thousands of trackable fragments posing hazards to satellites and human spaceflight. The Fengyun 1C debris cloud has become a focal point in discussions about space sustainability and the need for international regulations to prevent the creation of new debris.

Loading next visibility...
Identifier
30579, 1999-025ALV
Orbit
SSO
Country
Flag of CNCN / PRC
Related business
Manufacturer
Unknown
Mission
Spacecraft
Bus & Motor
Unknown
Mass
Unknown
Launch date (UTC)
1999-05-10 (27 years ago)
Launch vehicle
Unknown
Launch site
Taiyaun Space Center, China (TSC)
Object type
Payload
Rocket body
Debris
Shape & HBR
Unknown shape, 0.1 m
Radar Cross Section
Medium (>0.1 m² and <1 m²)

Expand to show TLE details & history
Last TLE update: 9 hours ago

TLE from 9 hours ago
0 FENGYUN 1C DEB
1 30579U 99025ALV 26256.55851247  .00000082  00000-0  75562-4 0  9996
2 30579  98.7869 278.0581 0053696  53.5625  99.0420 14.05504083  3174
Epoch: 2026-09-13T13:24Z
TLE epoch observation values (Epoch: 2026-09-13T13:24:15.477Z)
Latitude
26.48561°
Longitude
-91.16382°
Altitude
884.325 km
Speed
7.409 km/s
True Right ascension
06h 49m 48s
True Declination
26° 21' 04"
Sunlit
Object was in daylight at epoch
Visualization orbit readout
Latitude
Unknown
Longitude
Unknown
Altitude
Unknown
Speed
Unknown
Apparent Right ascension
Unknown
Apparent Declination
Unknown
Sunlit
N/A
Visualization observer readout
Local Sidereal Time
15:17:07
Azimuth
Unknown
Elevation
Unknown
Doppler factor
Unknown
Orbital elements
Apogee altitude
910.909 km
Perigee altitude
833.049 km
Semi-major axis
7,250.116 km
Eccentricity
0.00537
Inclination
98.7869°
RAAN
278.0581°
Arg. of periapsis
53.5625°
True anomaly
99.64901°
Mean anomaly
99.042°
Eccentric anomaly
99.34557°
Mean motion
3.51581 °/min
Orbital period
102.39 mins
BSTAR
0.000075562
Loading maneuver chart data...
Computing Atmospheric mass density...
Loading historical data...
Loading historical data...
Loading historical data...
Loading historical data...
Loading historical data...
Loading historical data...
Loading historical data...

Documentation

Showing up to 5 results
|